Location: Duac?
(36.9744°N, 30.6500°E)
Time: 11:52:29
(UTC+00:00)

CSL-04 Rocket - Pass Details

Date: 05 August 2024
Orbit: 804 x 859 km, 98.7° (Epoch: 11 September)

Event Time Altitude Azimuth Distance (km) Brightness Sun altitude
Rises 17:16:05 0° 144° (SE) 3,418 6.3 -3.8°
Reaches altitude 10° 17:18:35 10° 136° (SE) 2,488 5.6 -4.2°
Maximum altitude 17:23:40 38° 70° (ENE) 1,279 4.4 -5.2°
Drops below altitude 10° 17:28:45 10° 3° (N) 2,498 6.5 -6.1°
Sets 17:31:16 0° 356° (N) 3,433 7.3 -6.5°
